OE3UKW Weather Reports


Display with metric or nautical units.
time (UTC)temp
F
wind
direction
speed
MPH
gust
MPH
rain 1hr
in
rain 24hr
in
rain mn
in
humidity
%
barometer
mb
20260903164113 79 263 8.0 12.0 0.00 0.00 0.00 31 1019.1
20260903163112 79 281 4.0 12.0 0.00 0.00 0.00 31 1019.1
20260903162113 80 249 7.0 12.0 0.00 0.00 0.00 31 1019.1
20260903161112 80 281 9.0 14.0 0.00 0.00 0.00 30 1018.9
20260903160113 80 275 7.0 13.0 0.00 0.00 0.00 29 1018.9
20260903155112 81 269 7.0 14.0 0.00 0.00 0.00 29 1018.9
20260903154112 81 282 7.0 16.0 0.00 0.00 0.00 28 1018.9
20260903153112 82 286 9.0 16.0 0.00 0.00 0.00 28 1018.9
20260903152112 82 252 12.0 17.0 0.00 0.00 0.00 27 1019.1
20260903151112 82 285 7.0 15.0 0.00 0.00 0.00 28 1019.2
20260903150112 82 249 12.0 18.0 0.00 0.00 0.00 27 1019.2
20260903145112 83 252 7.0 17.0 0.00 0.00 0.00 26 1019.0
20260903144112 83 302 12.0 19.0 0.00 0.00 0.00 26 1019.2
20260903143112 83 245 10.0 15.0 0.00 0.00 0.00 28 1019.2
20260903142112 83 303 11.0 14.0 0.00 0.00 0.00 28 1019.3
20260903141112 82 305 8.0 17.0 0.00 0.00 0.00 29 1019.2
20260903140112 83 278 12.0 18.0 0.00 0.00 0.00 28 1019.3
20260903135112 84 269 9.0 21.0 0.00 0.00 0.00 26 1019.3
20260903134112 85 263 7.0 18.0 0.00 0.00 0.00 25 1019.5
20260903133112 84 259 3.0 10.0 0.00 0.00 0.00 26 1019.4
20260903132112 82 285 11.0 16.0 0.00 0.00 0.00 28 1019.4
20260903131112 82 240 4.0 10.0 0.00 0.00 0.00 30 1019.5
20260903130112 82 258 11.0 22.0 0.00 0.00 0.00 30 1019.7
20260903125112 82 251 10.0 17.0 0.00 0.00 0.00 30 1019.9
20260903124112 81 281 6.0 11.0 0.00 0.00 0.00 31 1020.0
20260903123112 82 267 5.0 12.0 0.00 0.00 0.00 32 1020.0
20260903122112 82 234 9.0 16.0 0.00 0.00 0.00 32 1020.0
20260903121112 82 256 8.0 12.0 0.00 0.00 0.00 33 1020.3
20260903120112 82 243 8.0 16.0 0.00 0.00 0.00 31 1020.3
20260903115112 82 244 11.0 14.0 0.00 0.00 0.00 31 1020.4
20260903114111 81 216 6.0 14.0 0.00 0.00 0.00 32 1020.4
20260903113112 80 237 10.0 16.0 0.00 0.00 0.00 35 1020.5
20260903112111 80 271 7.0 12.0 0.00 0.00 0.00 32 1020.7
20260903111111 80 327 7.0 10.0 0.00 0.00 0.00 30 1020.6
20260903110111 80 345 5.0 9.0 0.00 0.00 0.00 31 1020.6
20260903105111 80 341 10.0 14.0 0.00 0.00 0.00 30 1020.8
20260903104111 80 294 11.0 17.0 0.00 0.00 0.00 31 1020.9
20260903103111 80 278 5.0 16.0 0.00 0.00 0.00 31 1021.2
20260903102111 80 329 7.0 16.0 0.00 0.00 0.00 30 1021.2
20260903101111 80 313 9.0 16.0 0.00 0.00 0.00 33 1021.3
20260903100111 80 337 9.0 17.0 0.00 0.00 0.00 32 1021.3
20260903095111 80 349 8.0 14.0 0.00 0.00 0.00 33 1021.4
20260903094111 79 305 8.0 15.0 0.00 0.00 0.00 35 1021.4
20260903093111 79 317 10.0 13.0 0.00 0.00 0.00 36 1021.5
20260903092111 79 261 2.0 9.0 0.00 0.00 0.00 36 1021.6
20260903091111 80 298 6.0 12.0 0.00 0.00 0.00 37 1021.7
20260903090111 80 282 8.0 14.0 0.00 0.00 0.00 37 1021.9
20260903085111 80 271 10.0 13.0 0.00 0.00 0.00 37 1021.9
20260903084111 79 309 8.0 13.0 0.00 0.00 0.00 37 1021.8
20260903083111 79 298 8.0 13.0 0.00 0.00 0.00 40 1021.9
20260903082111 78 268 7.0 12.0 0.00 0.00 0.00 41 1021.9
20260903081111 77 275 11.0 15.0 0.00 0.00 0.00 43 1021.8
20260903080111 76 244 11.0 14.0 0.00 0.00 0.00 45 1021.9
20260903075111 74 281 6.0 13.0 0.00 0.00 0.00 47 1021.6
20260903074111 72 278 6.0 16.0 0.00 0.00 0.00 49 1021.6
20260903073111 70 231 7.0 12.0 0.00 0.00 0.00 54 1021.6
20260903072111 68 343 1.0 4.0 0.00 0.00 0.00 54 1021.8
20260903071111 66 360 1.0 4.0 0.00 0.00 0.00 56 1021.7
20260903070111 65 355 0.0 3.0 0.00 0.00 0.00 59 1021.6
20260903065111 64 129 1.0 3.0 0.00 0.00 0.00 59 1021.8
20260903064111 63 151 1.0 2.0 0.00 0.00 0.00 60 1021.7
20260903063111 62 184 1.0 2.0 0.00 0.00 0.00 62 1021.8
20260903062111 61 134 0.0 0.0 0.00 0.00 0.00 64 1021.8
20260903061111 60 142 0.0 1.0 0.00 0.00 0.00 65 1021.8
20260903060111 60 144 0.0 0.0 0.00 0.00 0.00 65 1021.8
20260903055111 60 146 0.0 0.0 0.00 0.00 0.00 64 1021.6
20260903054111 59 146 0.0 1.0 0.00 0.00 0.00 64 1021.6
20260903053111 59 90 0.0 0.0 0.00 0.00 0.00 65 1021.6
20260903052111 58 92 0.0 0.0 0.00 0.00 0.00 65 1021.5
20260903051111 58 91 0.0 0.0 0.00 0.00 0.00 64 1021.7
20260903050111 58 61 0.0 0.0 0.00 0.00 0.00 64 1021.5
20260903045110 58 61 0.0 2.0 0.00 0.00 0.00 64 1021.4
20260903044111 58 333 0.0 2.0 0.00 0.00 0.00 63 1021.5
20260903043110 58 350 0.0 0.0 0.00 0.00 0.00 63 1021.4
20260903042111 58 350 0.0 0.0 0.00 0.00 0.00 63 1021.5
20260903041110 58 350 0.0 3.0 0.00 0.00 0.00 62 1021.4
20260903040110 58 350 0.0 5.0 0.00 0.00 0.00 61 1021.3
20260903035110 58 360 3.0 4.0 0.00 0.00 0.00 60 1021.2
20260903034110 59 340 3.0 4.0 0.00 0.00 0.00 59 1021.2
20260903033110 60 318 4.0 5.0 0.00 0.00 0.00 58 1021.3
20260903032110 60 333 3.0 4.0 0.00 0.00 0.00 57 1021.2
20260903031110 60 335 3.0 4.0 0.00 0.00 0.00 57 1021.2
20260903030110 61 320 3.0 5.0 0.00 0.00 0.00 57 1021.3
20260903025110 61 317 4.0 4.0 0.00 0.00 0.00 57 1021.2
20260903024110 61 316 4.0 6.0 0.00 0.00 0.00 56 1021.2
20260903023110 62 327 4.0 5.0 0.00 0.00 0.00 56 1021.3
20260903022110 62 331 2.0 4.0 0.00 0.00 0.00 55 1021.3
20260903021110 62 331 2.0 3.0 0.00 0.00 0.00 54 1021.2
20260903020110 63 331 2.0 3.0 0.00 0.00 0.00 53 1021.2
20260903015110 63 331 3.0 4.0 0.00 0.00 0.00 53 1021.3
20260903014110 63 331 2.0 3.0 0.00 0.00 0.00 51 1021.4
20260903013110 64 331 3.0 4.0 0.00 0.00 0.00 51 1021.4
20260903012110 64 332 4.0 5.0 0.00 0.00 0.00 51 1021.5
20260903011110 64 309 4.0 7.0 0.00 0.00 0.00 50 1021.5
20260903005109 65 309 4.0 4.0 0.00 0.00 0.00 49 1021.4
20260903004114 65 322 4.0 6.0 0.00 0.00 0.00 49 1021.4
20260903003114 65 327 4.0 6.0 0.00 0.00 0.00 49 1021.3
20260903002114 65 343 5.0 6.0 0.00 0.00 0.00 49 1021.4
20260903001114 65 355 5.0 6.0 0.00 0.00 0.00 49 1021.4
20260903000114 65 344 5.0 6.0 0.00 0.00 0.00 49 1021.5
20260902235114 65 355 4.0 5.0 0.00 0.00 0.00 49 1021.4
20260902234114 65 349 4.0 6.0 0.00 0.00 0.00 49 1021.3
20260902233114 65 342 4.0 5.0 0.00 0.00 0.00 49 1021.2
20260902232114 66 322 4.0 6.0 0.00 0.00 0.00 48 1021.2
20260902231114 66 355 4.0 5.0 0.00 0.00 0.00 48 1021.0
20260902230114 66 322 4.0 8.0 0.00 0.00 0.00 48 1021.0
20260902225114 66 315 6.0 8.0 0.00 0.00 0.00 49 1020.9
20260902224114 66 348 3.0 8.0 0.00 0.00 0.00 48 1020.9
20260902223114 66 329 4.0 7.0 0.00 0.00 0.00 48 1020.8
20260902222114 66 340 4.0 5.0 0.00 0.00 0.00 49 1020.7
20260902221113 66 331 6.0 8.0 0.00 0.00 0.00 50 1020.8
20260902220113 66 315 5.0 9.0 0.00 0.00 0.00 50 1020.7
20260902215113 66 333 6.0 8.0 0.00 0.00 0.00 51 1020.7
20260902214114 65 334 5.0 9.0 0.00 0.00 0.00 51 1020.6
20260902213114 65 317 8.0 10.0 0.00 0.00 0.00 53 1020.6
20260902212113 65 338 6.0 9.0 0.00 0.00 0.00 55 1020.4
20260902211113 64 340 4.0 8.0 0.00 0.00 0.00 57 1020.3
20260902210113 64 333 3.0 5.0 0.00 0.00 0.00 57 1020.2
20260902205113 65 298 0.0 1.0 0.00 0.00 0.00 57 1020.2
20260902204113 65 350 1.0 2.0 0.00 0.00 0.00 55 1020.0
20260902203113 66 350 2.0 3.0 0.00 0.00 0.00 55 1020.0
20260902202113 66 355 3.0 4.0 0.00 0.00 0.00 54 1019.8
20260902201113 67 349 0.0 3.0 0.00 0.00 0.00 53 1019.9
20260902200113 67 219 0.0 0.0 0.00 0.00 0.00 53 1019.8
20260902195113 67 219 0.0 0.0 0.00 0.00 0.00 53 1019.9
20260902194113 67 219 0.0 0.0 0.00 0.00 0.00 53 1019.9
20260902193113 68 219 0.0 0.0 0.00 0.00 0.00 50 1019.9
20260902192113 68 219 0.0 0.0 0.00 0.00 0.00 50 1020.0
20260902191113 69 219 0.0 0.0 0.00 0.00 0.00 49 1020.0
20260902190113 70 219 0.0 1.0 0.00 0.00 0.00 47 1020.0
20260902185113 71 219 0.0 0.0 0.00 0.00 0.00 45 1019.9
20260902184113 71 219 0.0 0.0 0.00 0.00 0.00 43 1019.9
20260902183113 72 219 0.0 1.0 0.00 0.00 0.00 42 1020.0
20260902182113 73 218 1.0 3.0 0.00 0.00 0.00 40 1019.9
20260902181113 74 219 0.0 2.0 0.00 0.00 0.00 39 1019.8
20260902180113 75 225 1.0 5.0 0.00 0.00 0.00 37 1019.8
20260902175112 76 182 0.0 1.0 0.00 0.00 0.00 35 1019.8
20260902174113 77 190 0.0 2.0 0.00 0.00 0.00 33 1019.6
20260902173112 78 109 2.0 4.0 0.00 0.00 0.00 30 1019.5
20260902172112 79 117 2.0 6.0 0.00 0.00 0.00 30 1019.4
20260902171113 80 96 4.0 7.0 0.00 0.00 0.00 29 1019.4
20260902170112 81 122 3.0 4.0 0.00 0.00 0.00 28 1019.5
20260902165112 81 103 3.0 4.0 0.00 0.00 0.00 29 1019.6